Time,TemperatureF,DewpointF,PressureIn,WindDirection,WindDirectionDegrees,WindSpeedMPH,WindSpeedGustMPH,Humidity,HourlyPrecipIn,Conditions,Clouds,dailyrainin,SoftwareType,DateUTC
2013-09-06 00:14:00,74.9,74.0,30.07,ESE,106,0.0,0.0,98,0.01,,,0.00,weatherlink.com 1.10,2013-09-06 04:14:00,
2013-09-06 00:31:00,75.0,74.0,30.06,ESE,105,0.0,0.0,98,0.00,,,0.00,weatherlink.com 1.10,2013-09-06 04:31:00,
2013-09-06 00:47:00,74.9,74.0,30.06,ESE,105,0.0,0.0,98,0.00,,,0.00,weatherlink.com 1.10,2013-09-06 04:47:00,
2013-09-06 01:03:00,75.0,74.0,30.06,East,100,1.0,2.0,98,0.00,,,0.00,weatherlink.com 1.10,2013-09-06 05:03:00,
2013-09-06 01:19:00,75.0,74.0,30.06,East,100,0.0,1.0,97,0.00,,,0.00,weatherlink.com 1.10,2013-09-06 05:19:00,
2013-09-06 01:36:00,75.0,74.0,30.05,East,99,0.0,1.0,97,0.00,,,0.00,weatherlink.com 1.10,2013-09-06 05:36:00,
2013-09-06 01:52:00,74.8,74.0,30.05,East,99,0.0,0.0,97,0.00,,,0.00,weatherlink.com 1.10,2013-09-06 05:52:00,
2013-09-06 02:09:00,74.5,74.0,30.05,East,99,0.0,0.0,97,0.00,,,0.00,weatherlink.com 1.10,2013-09-06 06:09:00,
2013-09-06 02:25:00,74.5,74.0,30.05,East,98,0.0,0.0,98,0.00,,,0.00,weatherlink.com 1.10,2013-09-06 06:25:00,
2013-09-06 02:42:00,74.3,74.0,30.04,East,99,0.0,0.0,98,0.00,,,0.00,weatherlink.com 1.10,2013-09-06 06:42:00,
2013-09-06 02:58:00,74.3,74.0,30.04,East,99,0.0,1.0,98,0.00,,,0.00,weatherlink.com 1.10,2013-09-06 06:58:00,
2013-09-06 03:14:00,74.1,73.0,30.03,East,99,0.0,0.0,98,0.00,,,0.00,weatherlink.com 1.10,2013-09-06 07:14:00,
2013-09-06 03:31:00,74.6,74.0,30.04,East,99,2.0,2.0,99,0.00,,,0.00,weatherlink.com 1.10,2013-09-06 07:31:00,
2013-09-06 03:47:00,74.4,74.0,30.04,East,100,0.0,0.0,98,0.00,,,0.00,weatherlink.com 1.10,2013-09-06 07:47:00,
2013-09-06 04:03:00,74.7,74.0,30.04,East,100,0.0,0.0,99,0.00,,,0.00,weatherlink.com 1.10,2013-09-06 08:03:00,
2013-09-06 04:19:00,74.9,74.0,30.04,East,100,0.0,0.0,98,0.00,,,0.00,weatherlink.com 1.10,2013-09-06 08:19:00,
2013-09-06 04:36:00,74.4,74.0,30.04,East,100,0.0,0.0,98,0.00,,,0.00,weatherlink.com 1.10,2013-09-06 08:36:00,
2013-09-06 04:52:00,74.5,74.0,30.04,East,100,0.0,1.0,98,0.00,,,0.00,weatherlink.com 1.10,2013-09-06 08:52:00,
2013-09-06 05:08:00,74.6,74.0,30.04,East,100,0.0,1.0,99,0.00,,,0.00,weatherlink.com 1.10,2013-09-06 09:08:00,
2013-09-06 05:24:00,74.3,74.0,30.04,East,99,0.0,0.0,98,0.00,,,0.00,weatherlink.com 1.10,2013-09-06 09:24:00,
2013-09-06 05:40:00,75.2,75.0,30.05,ESE,103,1.0,3.0,98,0.00,,,0.00,weatherlink.com 1.10,2013-09-06 09:40:00,
2013-09-06 05:57:00,75.2,75.0,30.05,ESE,103,0.0,1.0,98,0.00,,,0.00,weatherlink.com 1.10,2013-09-06 09:57:00,
2013-09-06 06:13:00,75.2,75.0,30.05,East,101,0.0,1.0,98,0.00,,,0.00,weatherlink.com 1.10,2013-09-06 10:13:00,
2013-09-06 06:29:00,74.6,74.0,30.05,East,101,0.0,1.0,97,0.00,,,0.00,weatherlink.com 1.10,2013-09-06 10:29:00,
2013-09-06 06:46:00,74.4,74.0,30.04,East,101,0.0,0.0,98,0.00,,,0.00,weatherlink.com 1.10,2013-09-06 10:46:00,
2013-09-06 07:02:00,74.0,73.0,30.04,ESE,102,0.0,0.0,98,0.00,,,0.00,weatherlink.com 1.10,2013-09-06 11:02:00,
2013-09-06 07:18:00,73.8,73.0,30.05,East,101,0.0,0.0,98,0.00,,,0.00,weatherlink.com 1.10,2013-09-06 11:18:00,
2013-09-06 07:35:00,73.9,73.0,30.05,East,101,0.0,1.0,98,0.00,,,0.00,weatherlink.com 1.10,2013-09-06 11:35:00,
2013-09-06 07:51:00,74.6,74.0,30.05,East,101,0.0,1.0,99,0.00,,,0.00,weatherlink.com 1.10,2013-09-06 11:51:00,
2013-09-06 08:07:00,75.6,75.0,30.05,ESE,102,0.0,1.0,99,0.00,,,0.00,weatherlink.com 1.10,2013-09-06 12:07:00,
2013-09-06 08:24:00,77.0,77.0,30.06,ESE,102,1.0,2.0,99,0.00,,,0.00,weatherlink.com 1.10,2013-09-06 12:24:00,
2013-09-06 08:41:00,78.4,78.0,30.06,ESE,110,2.0,4.0,99,0.00,,,0.00,weatherlink.com 1.10,2013-09-06 12:41:00,
2013-09-06 08:57:00,79.5,78.0,30.07,ESE,108,0.0,2.0,96,0.00,,,0.00,weatherlink.com 1.10,2013-09-06 12:57:00,
2013-09-06 09:13:00,81.5,79.0,30.07,ESE,108,1.0,2.0,93,0.00,,,0.00,weatherlink.com 1.10,2013-09-06 13:13:00,
2013-09-06 09:30:00,83.6,79.0,30.07,NE,53,1.0,2.0,87,0.00,,,0.00,weatherlink.com 1.10,2013-09-06 13:30:00,
2013-09-06 09:47:00,85.3,80.0,30.07,ENE,71,1.0,2.0,83,0.00,,,0.00,weatherlink.com 1.10,2013-09-06 13:47:00,
2013-09-06 10:03:00,85.7,78.0,30.07,NE,51,2.0,3.0,79,0.00,,,0.00,weatherlink.com 1.10,2013-09-06 14:03:00,
2013-09-06 10:19:00,86.6,78.0,30.07,ENE,60,0.0,2.0,76,0.00,,,0.00,weatherlink.com 1.10,2013-09-06 14:19:00,
2013-09-06 10:36:00,86.8,79.0,30.07,East,82,0.0,3.0,78,0.00,,,0.00,weatherlink.com 1.10,2013-09-06 14:36:00,
2013-09-06 10:52:00,88.0,78.0,30.07,NNE,25,3.0,3.0,73,0.00,,,0.00,weatherlink.com 1.10,2013-09-06 14:52:00,
2013-09-06 11:08:00,89.2,79.0,30.07,East,88,0.0,2.0,73,0.00,,,0.00,weatherlink.com 1.10,2013-09-06 15:08:00,
2013-09-06 11:25:00,89.0,80.0,30.07,ESE,102,0.0,4.0,74,0.00,,,0.00,weatherlink.com 1.10,2013-09-06 15:25:00,
2013-09-06 11:41:00,88.6,78.0,30.07,East,96,1.0,3.0,72,0.00,,,0.00,weatherlink.com 1.10,2013-09-06 15:41:00,
2013-09-06 11:57:00,90.0,79.0,30.07,ESE,105,3.0,4.0,70,0.00,,,0.00,weatherlink.com 1.10,2013-09-06 15:57:00,
2013-09-06 12:14:00,88.6,77.0,30.06,ESE,108,4.0,4.0,68,0.00,,,0.00,weatherlink.com 1.10,2013-09-06 16:14:00,
2013-09-06 12:31:00,90.6,75.0,30.06,ESE,104,2.0,3.0,61,0.00,,,0.00,weatherlink.com 1.10,2013-09-06 16:31:00,
2013-09-06 12:47:00,89.9,79.0,30.05,East,99,2.0,2.0,70,0.00,,,0.00,weatherlink.com 1.10,2013-09-06 16:47:00,
2013-09-06 13:03:00,90.0,76.0,30.04,ESE,114,2.0,4.0,64,0.00,,,0.00,weatherlink.com 1.10,2013-09-06 17:03:00,
2013-09-06 13:19:00,90.9,77.0,30.04,ESE,113,2.0,4.0,64,0.00,,,0.00,weatherlink.com 1.10,2013-09-06 17:19:00,
2013-09-06 13:35:00,92.5,78.0,30.03,ESE,119,1.0,2.0,62,0.00,,,0.00,weatherlink.com 1.10,2013-09-06 17:35:00,
2013-09-06 13:52:00,93.0,78.0,30.02,ENE,57,0.0,3.0,62,0.00,,,0.00,weatherlink.com 1.10,2013-09-06 17:52:00,
2013-09-06 14:08:00,93.3,76.0,30.01,NE,49,2.0,3.0,57,0.00,,,0.00,weatherlink.com 1.10,2013-09-06 18:08:00,
2013-09-06 14:24:00,94.6,77.0,30.00,ESE,118,2.0,4.0,57,0.00,,,0.00,weatherlink.com 1.10,2013-09-06 18:24:00,
2013-09-06 14:41:00,94.7,78.0,29.99,East,91,0.0,4.0,58,0.00,,,0.00,weatherlink.com 1.10,2013-09-06 18:41:00,
2013-09-06 14:57:00,95.2,75.0,29.97,ENE,60,1.0,3.0,53,0.00,,,0.00,weatherlink.com 1.10,2013-09-06 18:57:00,
2013-09-06 15:14:00,95.3,75.0,29.97,East,98,2.0,3.0,53,0.00,,,0.00,weatherlink.com 1.10,2013-09-06 19:14:00,
2013-09-06 15:30:00,94.6,76.0,29.96,NE,44,2.0,4.0,55,0.00,,,0.00,weatherlink.com 1.10,2013-09-06 19:30:00,
2013-09-06 15:47:00,92.9,76.0,29.95,ENE,60,1.0,6.0,58,0.00,,,0.00,weatherlink.com 1.10,2013-09-06 19:47:00,
2013-09-06 16:03:00,82.9,73.0,29.99,ESE,120,7.0,18.0,71,0.00,,,0.00,weatherlink.com 1.10,2013-09-06 20:03:00,
2013-09-06 16:19:00,78.6,75.0,30.04,ESE,120,12.0,20.0,89,0.08,,,0.09,weatherlink.com 1.10,2013-09-06 20:19:00,
2013-09-06 16:36:00,74.2,72.0,30.05,ESE,106,7.0,13.0,93,0.86,,,0.92,weatherlink.com 1.10,2013-09-06 20:36:00,
2013-09-06 16:52:00,72.6,71.0,30.04,ESE,103,3.0,11.0,96,1.24,,,1.26,weatherlink.com 1.10,2013-09-06 20:52:00,
2013-09-06 17:09:00,72.1,71.0,30.02,ESE,109,0.0,8.0,96,1.64,,,1.65,weatherlink.com 1.10,2013-09-06 21:09:00,
2013-09-06 17:25:00,72.2,71.0,30.03,East,99,0.0,4.0,96,1.37,,,1.71,weatherlink.com 1.10,2013-09-06 21:25:00,
2013-09-06 17:41:00,72.1,71.0,30.02,East,96,1.0,2.0,97,0.61,,,1.72,weatherlink.com 1.10,2013-09-06 21:41:00,
2013-09-06 17:58:00,72.8,72.0,30.03,ESE,114,2.0,4.0,96,0.24,,,1.72,weatherlink.com 1.10,2013-09-06 21:58:00,
2013-09-06 18:14:00,72.7,72.0,30.01,ESE,105,0.0,4.0,97,0.06,,,1.75,weatherlink.com 1.10,2013-09-06 22:14:00,
2013-09-06 18:31:00,72.7,72.0,30.02,ESE,105,0.0,3.0,97,0.06,,,1.77,weatherlink.com 1.10,2013-09-06 22:31:00,
2013-09-06 18:48:00,73.2,72.0,30.02,ESE,108,0.0,3.0,97,0.09,,,1.81,weatherlink.com 1.10,2013-09-06 22:48:00,
2013-09-06 19:04:00,73.9,73.0,30.02,ESE,105,4.0,4.0,98,0.12,,,1.85,weatherlink.com 1.10,2013-09-06 23:04:00,
2013-09-06 19:21:00,73.9,73.0,30.02,ESE,105,2.0,4.0,97,0.12,,,1.88,weatherlink.com 1.10,2013-09-06 23:21:00,
2013-09-06 19:38:00,73.5,73.0,30.02,East,80,0.0,1.0,97,0.11,,,1.90,weatherlink.com 1.10,2013-09-06 23:38:00,
2013-09-06 19:54:00,73.6,73.0,30.02,ESE,103,3.0,3.0,97,0.07,,,1.90,weatherlink.com 1.10,2013-09-06 23:54:00,
2013-09-06 20:10:00,74.6,74.0,30.05,ESE,103,6.0,9.0,98,0.03,,,1.90,weatherlink.com 1.10,2013-09-07 00:10:00,
2013-09-06 20:27:00,73.9,73.0,30.05,ESE,103,3.0,8.0,96,0.01,,,1.90,weatherlink.com 1.10,2013-09-07 00:27:00,
2013-09-06 20:43:00,73.7,72.0,30.04,East,101,0.0,3.0,96,0.00,,,1.90,weatherlink.com 1.10,2013-09-07 00:43:00,
2013-09-06 21:01:00,73.3,72.0,30.02,East,97,0.0,1.0,97,0.00,,,1.90,weatherlink.com 1.10,2013-09-07 01:01:00,
2013-09-06 21:17:00,73.0,72.0,30.00,East,87,0.0,0.0,97,0.00,,,1.90,weatherlink.com 1.10,2013-09-07 01:17:00,
2013-09-06 21:33:00,72.9,72.0,29.99,East,86,0.0,1.0,97,0.00,,,1.90,weatherlink.com 1.10,2013-09-07 01:33:00,
2013-09-06 21:49:00,72.8,72.0,29.98,ENE,73,0.0,1.0,98,0.00,,,1.90,weatherlink.com 1.10,2013-09-07 01:49:00,
2013-09-06 22:05:00,72.7,72.0,29.99,East,96,0.0,1.0,98,0.00,,,1.90,weatherlink.com 1.10,2013-09-07 02:05:00,
2013-09-06 22:21:00,73.3,73.0,30.00,ESE,103,0.0,3.0,98,0.00,,,1.90,weatherlink.com 1.10,2013-09-07 02:21:00,
2013-09-06 22:38:00,73.0,72.0,30.00,East,84,0.0,1.0,98,0.00,,,1.90,weatherlink.com 1.10,2013-09-07 02:38:00,
2013-09-06 22:54:00,73.0,72.0,30.00,ENE,60,0.0,4.0,98,0.00,,,1.90,weatherlink.com 1.10,2013-09-07 02:54:00,
2013-09-06 23:10:00,73.5,73.0,30.01,ESE,108,1.0,3.0,98,0.00,,,1.90,weatherlink.com 1.10,2013-09-07 03:10:00,
2013-09-06 23:27:00,73.9,74.0,30.02,ESE,107,4.0,6.0,99,0.00,,,1.90,weatherlink.com 1.10,2013-09-07 03:27:00,
2013-09-06 23:43:00,74.0,73.0,30.03,ESE,112,8.0,8.0,98,0.00,,,1.90,weatherlink.com 1.10,2013-09-07 03:43:00,
2013-09-06 23:59:00,74.1,73.0,30.04,ESE,116,1.0,6.0,98,0.00,,,1.90,weatherlink.com 1.10,2013-09-07 03:59:00,